This is the latest recevied weather packets stored in our database for station/object AE6BH. If no packets are shown the sender has not sent any weather packets the latest 10 day(s).
| Time | Temp. | Humidity | Pressure | Rain* | Wind** | Luminosity | Snow |
|---|---|---|---|---|---|---|---|
| 1778034253 | 14.44° C | 62% | 1015.8 hPa | 0 mm | - | 4 W/m² | - |
| 1778033950 | 14.44° C | 61% | 1015.8 hPa | 0 mm | - | 7 W/m² | - |
| 1778033648 | 15° C | 60% | 1015.9 hPa | 0 mm | - | 10 W/m² | - |
| 1778033344 | 15° C | 60% | 1015.8 hPa | 0 mm | - | 14 W/m² | - |
| 1778033042 | 15° C | 60% | 1015.7 hPa | 0 mm | - | 17 W/m² | - |
| 1778032739 | 15° C | 59% | 1015.6 hPa | 0 mm | - | 20 W/m² | - |
| 1778032437 | 15° C | 58% | 1015.6 hPa | 0 mm | - | 28 W/m² | - |
| 1778032133 | 15.56° C | 57% | 1015.6 hPa | 0 mm | - | 28 W/m² | - |
| 1778031830 | 15.56° C | 56% | 1015.7 hPa | 0 mm | - | 29 W/m² | - |
| 1778031527 | 15.56° C | 56% | 1015.5 hPa | 0 mm | - | 32 W/m² | - |
| 1778031225 | 16.11° C | 55% | 1015.5 hPa | 0 mm | - | 32 W/m² | - |
| 1778030921 | 16.11° C | 54% | 1015.6 hPa | 0 mm | - | 47 W/m² | - |
| 1778030618 | 16.11° C | 53% | 1015.1 hPa | 0 mm | - | 37 W/m² | - |
| 1778030315 | 16.67° C | 54% | 1015.1 hPa | 0 mm | - | 42 W/m² | - |
| 1778030011 | 16.67° C | 54% | 1015.3 hPa | 0 mm | - | 39 W/m² | - |
| 1778029709 | 17.22° C | 52% | 1015.3 hPa | 0 mm | - | 45 W/m² | - |
| 1778029407 | 16.67° C | 53% | 1015.1 hPa | 0 mm | - | 44 W/m² | - |
| 1778029103 | 16.67° C | 51% | 1015.1 hPa | 0 mm | - | 69 W/m² | - |
| 1778028800 | 17.78° C | 52% | 1015.3 hPa | 0 mm | - | 74 W/m² | - |
| 1778028496 | 17.22° C | 52% | 1015 hPa | 0 mm | - | 78 W/m² | - |
| 1778028194 | 17.22° C | 54% | 1015.3 hPa | 0 mm | - | 54 W/m² | - |
| 1778027890 | 17.22° C | 54% | 1015.1 hPa | 0 mm | - | 49 W/m² | - |
| 1778027587 | 17.22° C | 52% | 1015.1 hPa | 0 mm | - | 51 W/m² | - |
| 1778027283 | 16.67° C | 53% | 1015.1 hPa | 0 mm | - | 79 W/m² | - |
| 1778026979 | 17.22° C | 53% | 1015.2 hPa | 0 mm | - | 58 W/m² | - |
* Rain latest hour (hover to see other rain measurements)
** Current wind speed in m/s (hover to see current wind gust speed)